Location: Barruelo
(41.2448°N, 3.8231°W)
Time: 14:31:09
(UTC+00:00)

USA 238 - Visible Passes

Search period start: 16 March 2026 00:00
Search period end: 26 March 2026 00:00
Orbit: 883 x 1328 km, 63.4° (Epoch: 10 January)

Date Brightness Start Highest point End Pass type
(mag) Time Alt. Az. Time Alt. Az. Time Alt. Az.
16 Mar 6.4 01:01:30 10° NNW 01:04:18 12° NNE 01:07:11 10° NE visible
16 Mar 5.6 02:51:40 10° NNW 02:57:57 29° NE 03:04:39 10° E visible
16 Mar 4.0 04:42:07 10° NW 04:49:42 83° WSW 04:57:52 10° SSE visible
16 Mar 4.0 20:25:33 10° SW 20:31:29 58° NW 20:38:03 10° NNE visible
16 Mar 6.0 22:19:57 10° WNW 22:24:01 17° NNW 22:28:20 10° NNE visible
17 Mar 6.4 00:16:18 10° NNW 00:18:17 11° N 00:20:19 10° NNE visible
17 Mar 5.9 02:06:55 10° NNW 02:12:22 22° NNE 02:18:09 10° E visible
17 Mar 4.2 03:57:08 10° NNW 04:04:38 70° NE 04:12:45 10° SE visible
17 Mar 4.8 05:48:52 10° NW 05:55:12 29° WSW 06:01:52 10° SSW visible
17 Mar 3.4 19:40:26 10° SSW 19:46:26 89° WNW 19:53:04 10° NE visible
17 Mar 5.6 21:33:31 10° W 21:38:21 22° NNW 21:43:33 10° NNE visible
17 Mar 6.4 23:30:18 10° NNW 23:32:15 11° N 23:34:15 10° NNE visible
18 Mar 6.2 01:22:09 10° NNW 01:26:37 17° NNE 01:31:20 10° ENE visible
18 Mar 4.8 03:12:15 10° NNW 03:19:26 49° NE 03:27:12 10° ESE visible
18 Mar 4.3 05:03:18 10° NW 05:10:27 44° WSW 05:18:03 10° S visible
18 Mar 3.5 18:55:45 10° SSW 19:01:34 57° ESE 19:07:55 10° NE visible
18 Mar 5.2 20:47:26 10° W 20:52:50 31° NW 20:58:44 10° NNE visible
18 Mar 6.3 22:43:37 10° NW 22:46:16 12° NNW 22:49:02 10° NNE visible
19 Mar 6.3 00:37:21 10° NNW 00:40:45 14° NNE 00:44:17 10° NE visible
19 Mar 5.3 02:27:27 10° NNW 02:34:06 35° NE 02:41:16 10° ESE visible
19 Mar 3.9 04:18:04 10° NW 04:25:35 67° WSW 04:33:39 10° SSE visible
19 Mar 4.6 20:01:41 10° WSW 20:07:30 45° NW 20:13:54 10° NNE visible
19 Mar 6.2 21:56:49 10° NW 22:00:23 15° NNW 22:04:08 10° NNE visible
19 Mar 6.4 23:52:23 10° NNW 23:54:47 12° N 23:57:15 10° NNE visible
20 Mar 5.7 01:42:40 10° NNW 01:48:37 26° NE 01:54:58 10° E visible
20 Mar 3.9 03:33:00 10° NW 03:40:35 85° NE 03:48:46 10° SE visible
20 Mar 5.0 05:25:20 10° WNW 05:30:54 22° WSW 05:36:42 10° SSW visible
20 Mar 3.8 19:16:21 10° SW 19:22:21 69° NW 19:28:58 10° NNE visible
20 Mar 5.9 21:10:13 10° WNW 21:14:37 19° NNW 21:19:19 10° NNE visible
20 Mar 6.4 23:06:54 10° NNW 23:08:45 11° N 23:10:39 10° NNE visible
21 Mar 6.0 00:57:55 10° NNW 01:02:58 19° NNE 01:08:19 10° ENE visible
21 Mar 4.4 02:48:04 10° NNW 02:55:28 60° NE 03:03:28 10° SE visible
21 Mar 4.5 04:39:29 10° NW 04:46:13 34° WSW 04:53:21 10° S visible
21 Mar 5.5 20:23:55 10° W 20:29:00 26° NW 20:34:32 10° NNE visible
21 Mar 6.4 22:20:32 10° NNW 22:22:44 12° N 22:24:59 10° NNE visible
22 Mar 6.2 00:13:09 10° NNW 00:17:10 15° NNE 00:21:23 10° NE visible
22 Mar 4.9 02:03:13 10° NNW 02:10:13 42° NE 02:17:46 10° ESE visible
22 Mar 4.1 03:54:04 10° NW 04:01:25 53° WSW 04:09:16 10° S visible
22 Mar 5.0 19:37:58 10° WSW 19:43:34 36° NW 19:49:42 10° NNE visible
22 Mar 6.3 21:33:44 10° NW 21:36:47 13° NNW 21:39:57 10° NNE visible
22 Mar 6.3 23:28:18 10° NNW 23:31:15 13° NNE 23:34:19 10° NE visible
23 Mar 5.4 01:18:26 10° NNW 01:24:49 31° NE 01:24:53 31° NE visible
23 Mar 4.8 03:08:55 10° NW 03:20:06 37° SSE 03:24:39 10° SSE visible
23 Mar 5.3 05:07:52 16° WSW 05:07:52 16° WSW 05:11:06 10° SW visible
23 Mar 4.4 18:52:24 10° SW 18:58:19 54° NW 19:04:50 10° NNE visible
23 Mar 6.1 20:47:00 10° WNW 20:50:56 16° NNW 20:55:06 10° NNE visible
23 Mar 6.4 22:43:10 10° NNW 22:45:15 11° N 22:47:23 10° NNE visible
24 Mar 5.7 00:33:40 10° NNW 00:39:16 23° NNE 00:39:43 23° NE visible
24 Mar 5.3 02:23:56 10° NNW 02:40:24 - SE 02:27:03 28° NNW visible
24 Mar 5.9 04:28:04 11° SSW 04:28:04 11° SSW 04:28:25 10° SSW visible
24 Mar 5.8 20:00:31 10° W 20:05:15 21° NNW 20:10:19 10° NNE visible
24 Mar 6.3 21:57:19 10° NNW 21:59:13 11° N 22:01:10 10° NNE visible
24 Mar 6.0 23:48:55 10° NNW 23:53:33 18° NNE 23:55:16 16° NE visible
25 Mar 5.3 01:39:01 10° NNW 01:42:38 30° NNW 01:42:38 30° NNW visible
25 Mar6.003:47:24S03:47:24S03:30:00NWvisible
25 Mar 5.4 19:14:22 10° W 19:19:42 29° NW 19:25:31 10° NNE visible
25 Mar 6.2 21:10:42 10° NNW 21:13:14 12° N 21:15:50 10° N visible
25 Mar 6.2 23:04:08 10° NNW 23:07:42 14° NNE 23:11:05 11° NE visible
